TimeCDT,TemperatureF,Dew PointF,Humidity,Sea Level PressureIn,VisibilityMPH,Wind Direction,Wind SpeedMPH,Gust SpeedMPH,PrecipitationIn,Events,Conditions,WindDirDegrees,DateUTC
12:15 AM,78.4,67.3,68,29.78,10.0,SSW,6.9,-,N/A,,Clear,210,2013-08-31 05:15:00
12:55 AM,77.0,67.3,72,29.78,10.0,SW,6.9,-,N/A,,Clear,230,2013-08-31 05:55:00
1:15 AM,77.2,67.3,71,29.78,10.0,SW,8.1,-,N/A,,Clear,230,2013-08-31 06:15:00
1:35 AM,77.2,67.3,71,29.79,10.0,SW,6.9,-,N/A,,Clear,230,2013-08-31 06:35:00
1:55 AM,76.5,67.3,73,29.78,10.0,SW,5.8,-,N/A,,Clear,220,2013-08-31 06:55:00
2:15 AM,76.3,67.5,74,29.79,10.0,SW,5.8,-,N/A,,Clear,230,2013-08-31 07:15:00
2:35 AM,75.6,67.5,76,29.78,10.0,SW,5.8,-,N/A,,Clear,220,2013-08-31 07:35:00
2:55 AM,75.6,67.5,76,29.78,10.0,SSW,6.9,-,N/A,,Clear,210,2013-08-31 07:55:00
3:15 AM,75.2,67.6,77,29.78,10.0,SW,5.8,-,N/A,,Clear,230,2013-08-31 08:15:00
3:35 AM,74.7,67.6,79,29.78,10.0,SW,5.8,-,N/A,,Clear,230,2013-08-31 08:35:00
3:55 AM,74.7,67.6,79,29.78,10.0,SW,6.9,-,N/A,,Clear,220,2013-08-31 08:55:00
4:15 AM,74.5,67.8,80,29.78,10.0,SW,5.8,-,N/A,,Clear,220,2013-08-31 09:15:00
4:35 AM,73.8,68.0,82,29.78,10.0,SSW,4.6,-,N/A,,Clear,210,2013-08-31 09:35:00
4:55 AM,73.0,68.2,85,29.77,10.0,SW,4.6,-,N/A,,Clear,220,2013-08-31 09:55:00
5:15 AM,73.8,68.4,83,29.77,10.0,West,6.9,-,N/A,,Clear,260,2013-08-31 10:15:00
5:35 AM,74.5,68.0,80,29.78,10.0,West,5.8,-,N/A,,Clear,260,2013-08-31 10:35:00
5:55 AM,76.1,68.2,76,29.78,10.0,NW,3.5,-,N/A,,Scattered Clouds,320,2013-08-31 10:55:00
6:15 AM,76.1,68.0,76,29.78,10.0,Calm,Calm,-,N/A,,Scattered Clouds,0,2013-08-31 11:15:00
6:35 AM,73.4,68.4,84,29.79,10.0,Calm,Calm,-,N/A,,Clear,0,2013-08-31 11:35:00
6:55 AM,72.7,68.2,86,29.78,10.0,Calm,Calm,-,N/A,,Clear,0,2013-08-31 11:55:00
7:15 AM,73.9,68.9,84,29.78,10.0,Calm,Calm,-,N/A,,Scattered Clouds,0,2013-08-31 12:15:00
7:35 AM,74.1,69.8,86,29.79,10.0,Calm,Calm,-,N/A,,Clear,0,2013-08-31 12:35:00
7:55 AM,74.8,70.0,85,29.80,10.0,West,3.5,-,N/A,,Clear,280,2013-08-31 12:55:00
8:15 AM,76.6,69.6,79,29.80,10.0,WNW,3.5,-,N/A,,Clear,300,2013-08-31 13:15:00
8:35 AM,77.5,69.3,76,29.80,10.0,WNW,4.6,-,N/A,,Clear,300,2013-08-31 13:35:00
8:55 AM,78.6,69.3,73,29.80,10.0,NW,4.6,-,N/A,,Scattered Clouds,320,2013-08-31 13:55:00
9:15 AM,79.5,69.4,71,29.80,10.0,WNW,4.6,-,N/A,,Scattered Clouds,300,2013-08-31 14:15:00
9:35 AM,81.0,69.4,68,29.80,10.0,NNW,6.9,-,N/A,,Clear,330,2013-08-31 14:35:00
9:55 AM,82.4,69.6,65,29.81,10.0,NNW,8.1,-,N/A,,Clear,330,2013-08-31 14:55:00
10:15 AM,82.4,69.4,65,29.81,10.0,North,10.4,-,N/A,,Clear,350,2013-08-31 15:15:00
10:35 AM,81.9,68.9,65,29.81,10.0,North,9.2,-,N/A,,Clear,350,2013-08-31 15:35:00
10:55 AM,82.4,68.7,63,29.81,10.0,North,9.2,-,N/A,,Clear,350,2013-08-31 15:55:00
11:15 AM,83.5,68.2,60,29.82,10.0,North,6.9,-,N/A,,Clear,10,2013-08-31 16:15:00
11:35 AM,82.0,67.6,62,29.81,10.0,North,5.8,-,N/A,,Scattered Clouds,360,2013-08-31 16:35:00
11:55 AM,82.8,68.0,61,29.81,10.0,NNW,9.2,-,N/A,,Scattered Clouds,340,2013-08-31 16:55:00
12:15 PM,84.7,68.4,58,29.81,10.0,North,10.4,-,N/A,,Clear,360,2013-08-31 17:15:00
12:35 PM,84.7,68.5,58,29.81,10.0,North,9.2,-,N/A,,Clear,350,2013-08-31 17:35:00
12:55 PM,85.3,69.4,59,29.81,10.0,NNW,6.9,-,N/A,,Clear,340,2013-08-31 17:55:00
1:15 PM,84.7,68.9,59,29.82,10.0,NNW,9.2,-,N/A,,Clear,340,2013-08-31 18:15:00
1:35 PM,84.6,68.5,58,29.81,10.0,North,9.2,-,N/A,,Clear,350,2013-08-31 18:35:00
1:55 PM,84.9,69.1,59,29.81,10.0,NNW,6.9,-,N/A,,Clear,330,2013-08-31 18:55:00
2:15 PM,84.6,68.7,59,29.81,10.0,NE,6.9,-,N/A,,Clear,40,2013-08-31 19:15:00
2:35 PM,86.2,68.5,55,29.81,10.0,North,6.9,-,N/A,,Clear,360,2013-08-31 19:35:00
2:55 PM,87.4,69.4,55,29.80,10.0,Calm,Calm,-,N/A,,Clear,0,2013-08-31 19:55:00
3:15 PM,87.8,69.1,54,29.80,10.0,North,5.8,-,N/A,,Clear,10,2013-08-31 20:15:00
3:35 PM,86.7,68.7,55,29.80,10.0,North,6.9,-,N/A,,Clear,360,2013-08-31 20:35:00
3:55 PM,87.3,69.3,55,29.80,10.0,NNW,5.8,-,N/A,,Clear,340,2013-08-31 20:55:00
4:15 PM,88.3,68.2,51,29.80,10.0,NNE,4.6,-,N/A,,Clear,30,2013-08-31 21:15:00
4:35 PM,88.7,68.9,52,29.79,10.0,North,8.1,-,N/A,,Scattered Clouds,360,2013-08-31 21:35:00
4:55 PM,88.0,68.7,53,29.79,10.0,North,5.8,-,N/A,,Clear,10,2013-08-31 21:55:00
5:15 PM,88.0,68.4,52,29.78,10.0,North,6.9,-,N/A,,Clear,350,2013-08-31 22:15:00
5:35 PM,87.6,67.8,52,29.78,10.0,North,6.9,-,N/A,,Clear,360,2013-08-31 22:35:00
5:55 PM,87.1,68.5,54,29.78,10.0,North,8.1,-,N/A,,Clear,10,2013-08-31 22:55:00
6:15 PM,86.4,68.2,54,29.78,10.0,North,6.9,-,N/A,,Clear,10,2013-08-31 23:15:00
6:35 PM,85.5,68.5,57,29.78,10.0,North,4.6,-,N/A,,Clear,350,2013-08-31 23:35:00
6:55 PM,84.4,68.7,59,29.78,10.0,North,5.8,-,N/A,,Clear,360,2013-08-31 23:55:00
7:15 PM,82.8,69.1,63,29.78,10.0,North,5.8,-,N/A,,Clear,360,2013-09-01 00:15:00
7:35 PM,81.0,69.4,68,29.78,10.0,North,3.5,-,N/A,,Clear,360,2013-09-01 00:35:00
7:55 PM,79.9,69.4,70,29.78,10.0,NNE,3.5,-,N/A,,Clear,20,2013-09-01 00:55:00
8:15 PM,77.9,69.6,76,29.78,10.0,Calm,Calm,-,N/A,,Clear,0,2013-09-01 01:15:00
8:35 PM,78.4,69.6,74,29.80,10.0,North,4.6,-,N/A,,Clear,350,2013-09-01 01:35:00
8:55 PM,75.9,69.1,79,29.81,10.0,NNE,4.6,-,N/A,,Clear,20,2013-09-01 01:55:00
9:15 PM,74.8,69.3,83,29.82,10.0,NE,4.6,-,N/A,,Clear,40,2013-09-01 02:15:00
9:35 PM,74.3,69.8,86,29.82,10.0,NE,4.6,-,N/A,,Clear,50,2013-09-01 02:35:00
9:55 PM,73.8,69.8,87,29.83,7.0,ENE,4.6,-,N/A,,Clear,60,2013-09-01 02:55:00
10:15 PM,73.4,69.3,87,29.83,7.0,ENE,4.6,-,N/A,,Clear,60,2013-09-01 03:15:00
10:35 PM,72.9,68.9,87,29.82,7.0,ENE,5.8,-,N/A,,Clear,60,2013-09-01 03:35:00
10:55 PM,72.5,68.7,88,29.82,7.0,ENE,4.6,-,N/A,,Clear,60,2013-09-01 03:55:00
11:15 PM,72.0,68.5,89,29.81,7.0,NE,3.5,-,N/A,,Clear,50,2013-09-01 04:15:00
11:35 PM,71.2,68.2,90,29.81,5.0,Calm,Calm,-,N/A,,Clear,0,2013-09-01 04:35:00
11:55 PM,70.5,67.8,91,29.81,4.0,Calm,Calm,-,N/A,,Clear,0,2013-09-01 04:55:00